Latest Coastal Weather Observations for Gannett Cay

IDQ60701

Issued at 2:31 pm EST Thursday 11 February 2016 (issued every 10 minutes, with the page automatically refreshed every 10 minutes)

About coastal observations | Map of coastal stations | Coastal observations for QLD | Marine services | Other Formats
Station Details ID: 200831 Name: GANNET CAY Lat: -21.98 Lon: 152.47 Height: 2.3 m
Data from the previous 72 hours. | See also: Recent months for locations in Queensland
Date/Time
EST
Temp

°C
Wind Pressure Rain
since 9am
mm
Weather Cloud Vis
km
Sea
Height
m
Swell
Dir
 
Speed
knots
Gust
knots
hPa Trend Height
m
Period
s
Dir
11/02:30pm 27.4 SSE 20 23 1006.4 - - - - - - - - -
11/02:29pm 27.5 SSE 20 22 1006.6 - - - - - - - - -
11/02:00pm 27.5 SSE 20 23 1006.4 - - - - - - - - -
11/01:30pm 27.6 SSE 19 23 1006.6 - - - - - - - - -
11/01:29pm 27.7 SSE 20 - 1006.8 - - - - - - - - -
11/01:00pm 27.6 SSE 20 23 1006.7 - - - - - - - - -
11/12:30pm 27.7 SSE 20 23 1007.0 - - - - - - - - -
11/12:29pm 27.6 SSE 20 - 1007.2 - - - - - - - - -
11/12:00pm 27.6 SE 20 22 1007.2 - - - - - - - - -
11/11:30am 27.7 SSE 19 22 1007.4 - - - - - - - - -
11/11:29am 27.7 SSE 18 - 1007.7 - - - - - - - - -
11/11:00am 27.5 SSE 19 22 1007.8 - - - - - - - - -
11/10:30am 27.6 SSE 19 22 1007.9 - - - - - - - - -
11/10:29am 27.5 SSE 19 - 1008.1 - - - - - - - - -
11/10:00am 27.6 SSE 18 22 1008.1 - - - - - - - - -
11/09:30am 27.4 SE 19 22 1008.1 - - - - - - - - -
11/09:29am 27.5 SE 18 - 1008.3 - - - - - - - - -
11/09:00am 27.2 SSE 19 21 1008.1 - - - - - - - - -
11/08:30am 27.3 SSE 22 25 1007.9 - - - - - - - - -
11/08:29am 27.2 SSE 22 - 1008.1 - - - - - - - - -
11/08:00am 27.3 SSE 21 24 1007.9 - - - - - - - - -
11/07:30am 27.1 SSE 21 24 1007.8 - - - - - - - - -
11/07:29am 27.1 SSE 21 - 1008.0 - - - - - - - - -
11/07:00am 27.0 SSE 20 24 1007.6 - - - - - - - - -
11/06:30am 26.9 SSE 20 23 1007.1 - - - - - - - - -
11/06:29am 26.9 SSE 20 - 1007.3 - - - - - - - - -
11/06:00am 26.8 SE 23 25 1006.7 - - - - - - - - -
11/05:30am 26.8 SE 22 25 1006.5 - - - - - - - - -
11/05:29am 26.8 SE 22 - 1006.6 - - - - - - - - -
11/05:00am 26.8 SE 21 25 1006.4 - - - - - - - - -
11/04:30am 26.7 SE 22 25 1006.3 - - - - - - - - -
11/04:29am 26.7 SE 22 - 1006.6 - - - - - - - - -
11/04:00am 26.7 SE 23 27 1006.2 - - - - - - - - -
11/03:30am 26.9 SE 23 26 1006.1 - - - - - - - - -
11/03:29am 26.8 SE 23 - 1006.3 - - - - - - - - -
11/03:00am 26.8 SE 21 25 1006.4 - - - - - - - - -
11/02:30am 26.8 SE 22 25 1006.4 - - - - - - - - -
11/02:29am 26.7 SE 22 - 1006.6 - - - - - - - - -
11/02:00am 26.8 SE 22 27 1006.5 - - - - - - - - -
11/01:30am 26.9 SE 22 26 1006.7 - - - - - - - - -
11/01:29am 26.9 SE 22 - 1006.9 - - - - - - - - -
11/01:00am 26.8 SSE 23 26 1006.9 - - - - - - - - -
11/12:30am 26.7 SSE 23 26 1007.3 - - - - - - - - -
11/12:29am 26.7 SSE 22 - 1007.5 - - - - - - - - -
11/12:00am 26.9 SE 23 26 1007.6 - - - - - - - - -
 
Date/Time
EST
Temp

°C
Wind Pressure Rain
since 9am
mm
Weather Cloud Vis
km
Sea
Height
m
Swell
Dir
 
Speed
knots
Gust
knots
hPa Trend Height
m
Period
s
Dir
10/11:30pm 27.0 SE 22 26 1008.0 - - - - - - - - -
10/11:29pm 27.0 SE 22 - 1008.2 - - - - - - - - -
10/11:00pm 27.0 SE 23 27 1008.3 - - - - - - - - -
10/10:30pm 27.0 SE 22 26 1008.6 - - - - - - - - -
10/10:29pm 27.0 SE 22 - 1008.8 - - - - - - - - -
10/10:00pm 27.1 SE 23 26 1008.6 - - - - - - - - -
10/09:30pm 27.1 SE 23 26 1008.8 - - - - - - - - -
10/09:29pm 27.1 SE 24 - 1009.0 - - - - - - - - -
10/09:00pm 27.2 SE 24 27 1008.8 - - - - - - - - -
10/08:30pm 27.2 SE 24 27 1008.7 - - - - - - - - -
10/08:29pm 27.1 SE 24 - 1008.9 - - - - - - - - -
10/08:00pm 27.1 SE 24 27 1008.5 - - - - - - - - -
10/07:30pm 27.2 SE 24 27 1008.1 - - - - - - - - -
10/07:29pm 27.0 SE 24 - 1008.3 - - - - - - - - -
10/07:00pm 27.1 SE 23 29 1007.8 - - - - - - - - -
10/06:30pm 27.2 SE 23 27 1007.7 - - - - - - - - -
10/06:29pm 27.2 SE 23 - 1007.9 - - - - - - - - -
10/06:00pm 27.2 SE 24 27 1007.6 - - - - - - - - -
10/05:30pm 27.3 SE 24 28 1007.3 - - - - - - - - -
10/05:29pm 27.2 SE 24 - 1007.5 - - - - - - - - -
10/05:00pm 27.2 SE 24 27 1006.9 - - - - - - - - -
10/04:30pm 27.3 SE 22 27 1006.8 - - - - - - - - -
10/04:29pm 27.4 SE 22 - 1007.0 - - - - - - - - -
10/04:00pm 27.6 SE 22 25 1006.5 - - - - - - - - -
10/03:30pm 26.9 SE 22 27 1006.5 - - - - - - - - -
10/03:29pm 27.0 SE 22 - 1006.7 - - - - - - - - -
10/03:00pm 27.8 SE 20 23 1006.6 - - - - - - - - -
10/02:30pm 27.5 SE 20 23 1006.6 - - - - - - - - -
10/02:29pm 27.4 SE 20 - 1006.8 - - - - - - - - -
10/02:00pm 27.8 SE 21 24 1006.7 - - - - - - - - -
10/01:30pm 27.8 SE 21 24 1007.3 - - - - - - - - -
10/01:29pm 27.9 SE 21 - 1007.5 - - - - - - - - -
10/01:00pm 27.9 SE 21 24 1007.5 - - - - - - - - -
10/12:30pm 27.7 SE 21 23 1007.8 - - - - - - - - -
10/12:29pm 27.7 SE 20 - 1008.0 - - - - - - - - -
10/12:00pm 27.7 SE 21 25 1008.1 - - - - - - - - -
10/11:30am 27.6 SE 21 23 1008.2 - - - - - - - - -
10/11:29am 27.5 SE 21 - 1008.4 - - - - - - - - -
10/11:00am 27.5 SE 20 24 1008.3 - - - - - - - - -
10/10:30am 27.7 SE 20 23 1008.3 - - - - - - - - -
10/10:29am 27.7 SE 20 - 1008.5 - - - - - - - - -
10/10:00am 27.5 SE 21 25 1008.4 - - - - - - - - -
10/09:30am 27.4 SE 22 25 1008.4 - - - - - - - - -
10/09:29am 27.4 SE 22 - 1008.7 - - - - - - - - -
10/09:00am 27.5 SE 22 25 1008.5 - - - - - - - - -
10/08:30am 27.4 SE 23 26 1008.2 - - - - - - - - -
10/08:29am 27.5 SE 23 - 1008.4 - - - - - - - - -
10/08:00am 27.1 SE 24 28 1008.2 - - - - - - - - -
10/07:30am 27.2 SE 24 27 1008.0 - - - - - - - - -
10/07:29am 27.2 SE 24 - 1008.2 - - - - - - - - -
10/07:00am 27.0 SE 25 29 1007.7 - - - - - - - - -
10/06:30am 27.1 SE 23 29 1007.5 - - - - - - - - -
10/06:29am 27.1 SE 23 - 1007.7 - - - - - - - - -
10/06:00am 26.8 SE 24 27 1007.3 - - - - - - - - -
10/05:30am 26.8 SE 23 27 1007.1 - - - - - - - - -
10/05:29am 26.8 SE 23 - 1007.3 - - - - - - - - -
10/05:00am 26.7 SE 25 28 1007.0 - - - - - - - - -
10/04:30am 26.7 SE 24 27 1006.9 - - - - - - - - -
10/04:29am 26.8 SE 24 - 1007.1 - - - - - - - - -
10/04:00am 26.6 SSE 24 28 1006.8 - - - - - - - - -
10/03:30am 26.5 SSE 24 27 1006.7 - - - - - - - - -
10/03:29am 26.6 SSE 23 - 1006.9 - - - - - - - - -
10/03:00am 26.7 SE 24 27 1006.9 - - - - - - - - -
10/02:30am 26.8 SE 23 27 1007.1 - - - - - - - - -
10/02:29am 26.8 SE 23 - 1007.3 - - - - - - - - -
10/02:00am 26.9 SE 23 27 1007.0 - - - - - - - - -
10/01:30am 26.8 SE 25 29 1007.2 - - - - - - - - -
10/01:29am 26.8 SE 25 - 1007.4 - - - - - - - - -
10/01:00am 26.9 SE 26 30 1007.5 - - - - - - - - -
10/12:30am 26.9 SE 26 30 1008.1 - - - - - - - - -
10/12:29am 26.9 SE 26 - 1008.3 - - - - - - - - -
10/12:00am 26.9 SE 25 29 1008.5 - - - - - - - - -
 
Date/Time
EST
Temp

°C
Wind Pressure Rain
since 9am
mm
Weather Cloud Vis
km
Sea
Height
m
Swell
Dir
 
Speed
knots
Gust
knots
hPa Trend Height
m
Period
s
Dir
09/11:30pm 26.9 SE 25 29 1009.0 - - - - - - - - -
09/11:29pm 26.9 SE 25 - 1009.2 - - - - - - - - -
09/11:00pm 27.0 SE 26 31 1009.7 - - - - - - - - -
09/10:30pm 27.0 SE 27 32 1010.2 - - - - - - - - -
09/10:29pm 27.0 SE 27 - 1010.3 - - - - - - - - -
09/10:00pm 27.1 SSE 28 34 1010.1 - - - - - - - - -
09/09:30pm 27.1 SE 28 33 1010.0 - - - - - - - - -
09/09:29pm 27.1 SE 28 - 1010.1 - - - - - - - - -
09/09:00pm 27.2 SSE 26 30 1010.0 - - - - - - - - -
09/08:30pm 27.2 SSE 27 31 1010.1 - - - - - - - - -
09/08:29pm 27.2 SE 27 - 1010.1 - - - - - - - - -
09/08:00pm 27.2 SE 27 31 1010.0 - - - - - - - - -
09/07:30pm 27.1 SE 27 31 1009.8 - - - - - - - - -
09/07:29pm 27.1 SE 27 - 1009.9 - - - - - - - - -
09/07:00pm 27.1 SE 26 31 1009.7 - - - - - - - - -
09/06:30pm 27.2 SE 27 32 1009.6 - - - - - - - - -
09/06:29pm 27.2 SE 27 - 1009.7 - - - - - - - - -
09/06:00pm 27.2 SE 28 32 1009.3 - - - - - - - - -
09/05:30pm 27.3 SE 28 32 1008.8 - - - - - - - - -
09/05:29pm 27.2 SE 28 - 1009.0 - - - - - - - - -
09/05:00pm 27.4 SE 28 33 1008.7 - - - - - - - - -
09/04:30pm 27.5 SE 27 31 1008.6 - - - - - - - - -
09/04:29pm 27.6 SE 27 - 1008.7 - - - - - - - - -
09/04:00pm 27.1 SE 26 32 1008.5 - - - - - - - - -
09/03:30pm 27.4 SE 27 31 1008.1 - - - - - - - - -
09/03:29pm 27.4 SE 27 - 1008.5 - - - - - - - - -
09/03:00pm 27.6 SE 25 31 1008.2 - - - - - - - - -
09/02:30pm 27.7 SE 26 31 1008.5 - - - - - - - - -
09/02:29pm 27.7 SE 26 - 1008.7 - - - - - - - - -
09/02:00pm 27.8 SE 24 29 1008.9 - - - - - - - - -
09/01:30pm 27.8 SE 24 29 1009.3 - - - - - - - - -
09/01:29pm 27.8 SE 25 - 1009.4 - - - - - - - - -
09/01:00pm 27.8 SE 25 29 1009.3 - - - - - - - - -
09/12:30pm 27.9 SE 24 28 1009.5 - - - - - - - - -
09/12:29pm 27.9 SE 24 - 1009.5 - - - - - - - - -
09/12:00pm 27.7 SE 24 28 1009.3 - - - - - - - - -
09/11:30am 27.6 SE 25 28 1009.6 - - - - - - - - -
09/11:29am 27.6 SE 25 - 1009.7 - - - - - - - - -
09/11:00am 27.6 SE 23 27 1009.8 - - - - - - - - -
09/10:30am 27.6 SE 23 27 1010.0 - - - - - - - - -
09/10:29am 27.6 SE 23 - 1010.1 - - - - - - - - -
09/10:00am 27.6 SE 24 28 1010.0 - - - - - - - - -
09/09:30am 27.4 SE 24 28 1009.9 - - - - - - - - -
09/09:29am 27.4 SE 24 - 1010.1 - - - - - - - - -
09/09:00am 27.3 SE 24 27 1010.0 - - - - - - - - -
09/08:30am 27.4 SE 23 27 1009.9 - - - - - - - - -
09/08:29am 27.4 SE 23 - 1010.0 - - - - - - - - -
09/08:00am 27.3 SE 23 27 1010.0 - - - - - - - - -
09/07:30am 27.3 SE 25 29 1010.0 - - - - - - - - -
09/07:29am 27.2 SE 25 - 1010.1 - - - - - - - - -
09/07:00am 27.1 SE 24 28 1009.7 - - - - - - - - -
09/06:30am 26.9 SE 25 29 1009.6 - - - - - - - - -
09/06:29am 27.0 SE 25 - 1009.7 - - - - - - - - -
09/06:00am 27.1 SE 25 29 1009.3 - - - - - - - - -
09/05:30am 26.9 SE 25 29 1008.9 - - - - - - - - -
09/05:29am 26.9 SE 25 - 1009.0 - - - - - - - - -
09/05:00am 26.8 SE 23 27 1008.8 - - - - - - - - -
09/04:30am 26.8 SE 23 27 1008.3 - - - - - - - - -
09/04:29am 26.9 SE 23 - 1008.5 - - - - - - - - -
09/04:00am 26.8 SE 22 27 1008.2 - - - - - - - - -
09/03:30am 26.7 SE 23 27 1008.0 - - - - - - - - -
09/03:29am 26.8 SE 23 - 1008.3 - - - - - - - - -
09/03:00am 26.7 SE 24 28 1008.2 - - - - - - - - -
09/02:30am 26.9 SE 24 29 1008.3 - - - - - - - - -
09/02:29am 26.9 SE 25 - 1008.6 - - - - - - - - -
09/02:00am 26.8 SE 25 29 1008.5 - - - - - - - - -
09/01:30am 26.9 SE 25 29 1008.8 - - - - - - - - -
09/01:29am 26.8 SE 26 - 1009.0 - - - - - - - - -
09/01:00am 26.9 SSE 25 31 1008.9 - - - - - - - - -
09/12:30am 26.9 SE 27 31 1009.1 - - - - - - - - -
09/12:29am 26.8 SE 26 - 1009.3 - - - - - - - - -
09/12:00am 26.9 SE 26 30 1009.5 - - - - - - - - -
 
Date/Time
EST
Temp

°C
Wind Pressure Rain
since 9am
mm
Weather Cloud Vis
km
Sea
Height
m
Swell
Dir
 
Speed
knots
Gust
knots
hPa Trend Height
m
Period
s
Dir
08/11:30pm 27.0 SSE 27 30 1009.8 - - - - - - - - -
08/11:29pm 27.0 SSE 27 - 1009.9 - - - - - - - - -
08/11:00pm 27.1 SE 26 31 1010.4 - - - - - - - - -
08/10:30pm 27.2 SSE 27 31 1010.6 - - - - - - - - -
08/10:29pm 27.3 SSE 27 - 1010.8 - - - - - - - - -
08/10:00pm 27.1 SSE 26 30 1010.7 - - - - - - - - -
08/09:30pm 27.1 SSE 26 31 1010.6 - - - - - - - - -
08/09:29pm 27.2 SSE 26 - 1010.7 - - - - - - - - -
08/09:00pm 27.0 SSE 26 31 1010.4 - - - - - - - - -
08/08:30pm 26.2 SSE 24 28 1010.3 - - - - - - - - -
08/08:29pm 26.2 SSE 24 - 1010.4 - - - - - - - - -
08/08:00pm 26.5 SE 24 29 1010.4 - - - - - - - - -
08/07:30pm 26.7 SE 26 31 1010.0 - - - - - - - - -
08/07:29pm 26.8 SE 25 - 1010.1 - - - - - - - - -
08/07:00pm 26.4 SSE 23 27 1009.9 - - - - - - - - -
08/06:30pm 26.7 SE 26 30 1009.7 - - - - - - - - -
08/06:29pm 26.8 SE 27 - 1009.7 - - - - - - - - -
08/06:00pm 27.1 SE 25 29 1009.3 - - - - - - - - -
08/05:30pm 26.9 SE 24 29 1008.7 - - - - - - - - -
08/05:29pm 26.8 SE 24 - 1008.9 - - - - - - - - -
08/05:00pm 27.6 SE 25 30 1008.4 - - - - - - - - -
08/04:30pm 26.8 SE 27 31 1008.1 - - - - - - - - -
08/04:29pm 26.7 SE 27 - 1008.2 - - - - - - - - -
08/04:00pm 27.3 SE 23 28 1007.8 - - - - - - - - -
08/03:30pm 27.6 SE 26 32 1007.7 - - - - - - - - -
08/03:29pm 27.5 SE 26 - 1007.9 - - - - - - - - -
08/03:00pm 27.5 SE 24 30 1007.7 - - - - - - - - -

Other Formats:

Comma delimited format used in spreadsheet applications
http://www.bom.gov.au/fwo/IDQ60701/IDQ60701.94379.axf

JavaScript Object Notation format (JSON) in row-major order
http://www.bom.gov.au/fwo/IDQ60701/IDQ60701.94379.json